OOV-CUBE (TUBSAT-30)

Last updated on Tue Oct 28 2025 00:03:13 GMT+0000 (Coordinated Universal Time)

1 60240U 24128F 25300.45982628 .00003371 00000+0 26820-3 0 9997 2 60240 61.9957 316.2187 0058748 84.3293 276.4493 15.01186063 71150
UTC large
Height (km)
Speed (km/s)
/
Latitude / Longitude
Inclination (degrees)
Orbital Period (minutes)
Azimuth
Elevation
Range (km)
Doppler Factor

Next 0 passes for location: London (51.5072 / 0.1276)

Sorry there are no passes over London.